Probability
0 0 0 0 0 0 0 0 0 0 0 0 0 0 0 0 0 0 0 0 1 6 12 15 17 18 15 12 11 12 11 9 7 6 4 3 4 3 1 0 0 0 0 0 0 0 0 0 0
0 0 0 0 0 0 0 0 0 0 0 0 0 0 0 0 0 0 0 0 3 8 13 15 18 19 16 13 13 12 11 9 8 7 7 6 5 4 2 1 0 0 0 0 0 0 0 0 0
0 0 0 0 0 0 0 0 0 0 0 0 0 0 0 0 0 0 0 2 6 12 15 17 19 20 17 15 13 12 11 10 9 9 9 10 8 6 5 3 2 1 1 0 0 1 1 0 0
0 0 1 0 0 0 0 0 0 0 0 0 0 1 2 1 1 2 3 7 13 17 19 20 20 19 18 16 14 13 13 12 11 11 11 11 10 8 8 7 5 3 3 1 1 2 2 1 0
0 0 0 0 0 0 0 0 0 0 0 0 1 2 3 4 5 6 8 15 20 21 23 24 22 20 18 16 13 13 14 14 15 14 13 13 13 11 10 10 8 6 5 4 3 3 3 2 1
0 0 0 0 0 0 0 0 0 0 0 0 1 2 4 6 9 10 13 19 22 23 25 26 24 20 17 14 12 13 15 17 18 18 17 16 15 13 11 10 9 9 7 5 4 3 3 2 1
0 0 0 0 0 0 0 0 0 0 0 0 1 2 4 7 12 15 17 20 21 21 24 25 23 20 17 15 12 12 15 18 19 19 18 16 14 13 11 10 10 10 8 6 5 4 3 2 1
0 0 0 0 0 0 0 1 1 0 0 0 1 3 5 9 15 18 20 21 20 20 21 23 21 19 18 17 13 12 14 16 16 14 13 13 12 12 11 10 10 9 9 7 6 5 4 2 1
0 0 0 0 0 0 1 2 2 1 0 0 2 3 6 11 17 20 21 20 18 18 19 20 20 18 18 17 15 13 13 13 11 8 7 9 11 11 10 8 8 8 8 7 7 6 4 2 0
0 0 0 0 0 0 1 2 3 2 1 0 1 4 9 14 17 20 20 18 17 17 17 18 18 18 17 18 18 17 14 12 11 8 6 9 12 13 12 10 9 7 5 5 6 7 4 1 0
0 0 0 0 0 0 1 2 3 2 1 0 1 5 11 15 17 18 18 17 16 15 15 15 16 18 18 18 19 19 17 15 13 11 9 11 15 17 16 15 11 8 5 4 6 6 3 1 0
0 0 0 0 0 0 1 2 3 2 1 0 1 5 11 15 16 17 17 16 15 15 14 14 15 17 18 18 16 16 16 15 15 14 12 13 18 20 20 18 15 11 8 6 6 4 2 0 0
0 0 0 0 0 0 1 3 3 2 1 0 2 5 10 14 16 17 17 15 14 15 15 15 14 15 17 17 14 11 12 13 14 14 14 15 18 21 21 19 17 14 11 8 6 3 1 0 0
0 0 0 0 0 1 2 3 3 2 1 0 2 6 9 13 15 16 16 15 14 14 15 16 15 14 15 16 12 8 9 11 12 11 11 13 16 18 19 18 16 13 10 8 5 2 1 0 0
0 0 0 0 0 1 2 3 3 2 1 0 2 5 8 11 14 14 14 14 14 13 14 15 14 13 13 13 11 8 8 9 10 9 7 10 13 16 17 16 14 11 8 6 4 2 1 1 1
0 0 0 0 0 0 1 2 3 2 1 0 1 3 6 10 13 13 12 12 13 13 13 13 11 11 11 11 10 9 9 8 9 8 7 8 12 14 14 14 12 9 5 4 3 1 1 0 0
0 0 0 0 0 0 1 2 2 1 0 0 0 1 3 8 12 12 11 11 13 13 12 11 10 9 8 8 8 9 9 8 8 9 7 8 11 13 12 12 11 7 5 3 2 1 0 0 0
0 0 0 0 0 0 1 2 2 1 0 0 0 1 2 5 9 10 9 11 12 12 11 10 9 8 7 6 7 8 8 7 7 8 8 8 10 10 10 10 9 7 5 3 1 1 0 0 0
0 0 0 0 0 0 1 2 3 1 0 0 1 2 3 4 6 7 7 10 12 11 10 10 9 7 6 6 6 7 7 6 6 6 7 8 8 9 10 9 9 8 6 4 2 1 0 0 0
0 0 0 0 0 0 1 3 3 2 1 0 1 2 3 4 5 5 5 8 10 10 9 9 8 6 5 5 7 7 7 7 7 5 6 7 7 8 9 10 9 8 6 4 3 2 1 1 0
0 0 0 0 1 1 2 3 3 3 2 1 0 1 3 4 5 4 3 5 8 9 9 9 7 6 4 5 7 8 8 8 7 5 4 5 6 7 9 10 9 7 6 4 3 3 2 1 0
0 0 0 0 1 2 2 3 2 2 1 1 0 1 2 3 4 3 1 4 8 9 8 8 7 6 4 4 5 7 8 7 6 5 3 3 4 6 8 9 9 8 6 5 4 4 3 1 0
0 0 0 0 1 1 1 1 1 1 0 0 0 1 2 3 3 2 1 3 8 9 9 8 8 7 5 4 3 5 6 6 6 4 3 3 4 5 7 9 9 8 7 5 4 4 4 3 1
0 0 1 1 1 0 0 0 0 0 0 0 0 0 1 1 2 2 2 3 7 9 9 9 7 7 5 3 2 3 5 6 6 5 4 4 5 4 5 8 9 8 6 4 3 4 5 4 1
0 0 1 2 1 0 0 0 0 0 0 0 0 0 0 0 1 2 2 2 6 9 10 9 8 7 5 2 1 1 3 5 6 6 6 6 6 6 5 6 7 7 6 4 3 4 5 3 1
0 0 1 1 1 0 0 0 0 0 0 0 0 0 0 0 0 1 1 1 4 8 9 9 8 7 5 3 1 0 1 4 6 6 6 6 7 7 6 5 5 6 6 4 3 3 3 2 1
0 0 0 0 0 0 0 0 0 0 0 0 0 0 0 0 0 0 0 0 2 5 7 9 9 8 6 4 2 1 1 3 5 6 6 6 7 7 8 7 6 6 6 5 4 3 3 2 1
0 0 0 0 0 0 0 0 0 0 0 0 0 0 0 0 0 0 0 0 1 3 5 7 8 8 7 5 4 3 3 3 4 4 5 6 6 7 8 9 9 8 7 5 3 3 3 2 1
0 0 0 0 0 0 0 0 0 0 0 0 0 0 0 0 0 0 0 0 0 1 3 6 7 7 6 5 4 3 3 3 3 3 4 6 6 7 8 9 10 10 7 4 3 3 3 1 0
0 0 0 0 0 0 0 0 0 0 0 0 0 0 0 0 0 0 0 0 0 0 2 5 5 6 6 5 4 3 3 3 3 3 4 6 6 6 7 9 10 9 7 4 3 3 2 1 0
Wind_Speed
7 5 3 2 4 5 8 7 5 3 3 2 1 3 3 2 2 3 5 2 2 2 4 5 4 5 6 7 7 8 8 8 9 10 11 11 11 11 11 11 11 11 12 12 13 13 14 14 14
6 3 2 3 6 9 8 8 7 4 1 1 2 3 2 1 3 4 3 2 1 3 4 5 5 5 6 6 7 7 8 8 9 10 10 10 11 11 11 11 11 11 11 12 12 13 13 13 14
3 2 2 3 6 9 8 4 5 3 2 2 2 1 1 1 2 2 3 1 1 4 4 5 4 5 6 6 6 7 7 8 8 9 9 9 10 10 10 10 10 11 11 11 12 12 12 13 13
2 2 2 5 10 9 7 2 1 3 3 2 2 2 2 3 3 3 1 1 2 4 5 5 4 5 6 6 6 6 6 7 7 8 9 9 9 10 10 10 10 10 11 11 11 12 12 12 13
1 2 5 7 11 8 5 3 2 3 3 2 3 2 2 3 5 4 2 2 3 3 4 5 4 4 5 6 6 5 6 6 6 8 9 9 9 9 9 9 9 10 10 11 11 12 12 12 12
2 3 7 10 11 8 6 4 3 4 3 2 3 3 2 3 4 3 2 2 3 3 3 4 4 4 4 4 5 5 5 5 5 6 8 8 8 9 8 9 9 10 10 10 11 11 11 11 11
2 3 7 9 9 8 5 4 4 4 4 3 2 3 2 2 4 2 1 2 3 3 4 3 3 3 4 3 3 4 4 4 5 5 6 7 7 8 8 8 8 9 10 10 10 11 11 11 11
1 2 6 7 8 7 2 2 3 5 4 1 3 4 2 2 2 1 1 2 3 3 3 3 2 2 3 3 3 3 4 4 4 4 5 6 7 7 7 7 7 8 9 10 10 11 11 11 10
2 5 8 8 6 3 1 2 2 3 3 2 3 3 2 0 0 1 2 2 3 2 2 2 2 2 2 2 2 3 3 4 4 4 5 5 6 7 6 7 7 8 8 9 10 11 11 10 9
2 6 7 3 3 2 2 3 2 3 4 4 3 2 1 2 2 2 1 1 1 2 2 1 1 1 1 1 2 2 2 3 4 4 5 5 5 4 5 6 6 7 8 8 9 10 9 6 6
1 3 3 3 3 3 3 4 3 5 6 5 4 2 1 2 2 2 2 2 1 0 0 1 0 1 1 1 1 1 1 2 3 4 4 4 4 4 4 4 5 6 7 6 8 7 5 5 4
2 2 3 3 3 4 5 5 5 7 7 5 5 3 3 3 3 3 2 2 1 1 1 1 1 1 1 1 1 1 1 1 1 3 4 3 3 4 4 4 4 4 4 5 5 4 5 5 5
4 3 3 3 3 4 5 7 7 8 6 5 4 3 3 3 3 3 2 2 1 1 1 1 1 1 1 1 1 1 1 1 1 2 3 3 3 4 4 4 4 4 4 5 5 5 5 5 5
2 3 4 5 5 5 6 7 7 7 4 4 4 4 3 3 3 3 2 2 2 2 2 2 1 1 1 1 1 1 1 1 1 2 3 3 3 4 4 5 4 4 4 5 5 5 5 4 4
3 4 5 5 5 4 6 9 9 6 5 5 4 4 4 3 3 3 3 3 3 2 2 2 2 2 2 2 2 1 1 1 1 2 3 4 4 5 5 4 4 4 4 5 5 6 5 4 4
4 5 5 3 4 4 7 10 4 3 5 5 5 4 4 3 3 3 3 3 3 3 3 2 2 2 2 2 2 1 1 2 1 2 2 4 4 5 5 5 5 5 4 4 5 5 5 5 4
4 5 7 4 3 4 7 9 4 4 5 5 5 4 4 4 3 3 3 3 2 3 3 3 3 2 2 2 2 2 1 2 2 2 2 2 4 5 5 5 4 6 5 4 5 5 5 5 5
4 6 7 7 3 5 8 10 8 5 6 7 5 5 4 4 3 3 3 2 2 2 3 3 3 3 2 2 1 1 2 1 2 2 2 3 3 4 4 4 6 6 5 5 5 6 5 5 4
5 7 9 7 4 7 10 11 10 7 7 7 5 5 4 4 3 3 3 2 2 2 3 3 3 3 2 2 2 2 2 2 2 2 3 4 3 4 4 3 5 6 5 6 7 6 7 5 5
6 8 8 6 4 6 9 12 9 7 7 6 5 4 5 4 3 3 4 3 2 3 3 3 3 3 3 3 3 3 2 2 2 2 2 3 4 5 5 5 5 5 5 7 7 6 5 4 4
7 8 7 7 7 6 7 8 6 5 5 5 4 4 4 4 4 4 4 4 3 4 4 3 4 4 4 3 3 2 2 2 2 2 3 3 3 4 5 6 6 5 6 6 7 8 7 6 5
6 4 6 7 6 4 4 6 5 5 5 5 4 4 4 4 4 4 4 4 5 5 4 4 4 4 4 4 4 4 4 4 4 3 3 3 3 4 5 5 6 6 5 6 7 7 6 7 6
4 4 6 6 6 6 5 6 5 3 5 4 3 4 4 4 5 5 5 5 5 5 4 4 4 4 4 4 4 5 4 3 3 3 4 4 3 4 5 5 5 5 5 5 6 6 7 6 6
3 3 3 4 5 7 5 7 6 3 5 4 3 4 4 5 5 5 5 5 5 4 4 4 4 4 4 4 4 5 5 4 4 4 4 4 3 3 5 5 6 5 5 5 6 6 8 7 7
2 2 3 3 5 4 2 6 7 2 4 5 5 5 5 5 5 5 5 5 5 5 4 4 4 4 4 4 4 5 5 5 5 5 5 4 4 3 5 5 6 5 5 5 5 6 6 7 7
2 3 3 4 5 4 3 7 3 1 3 3 4 4 5 5 5 6 6 6 5 5 5 4 5 4 4 5 5 5 5 4 4 5 5 5 4 4 5 6 6 6 6 6 6 5 5 5 6
1 1 2 3 3 6 6 4 4 2 2 2 3 4 5 6 6 6 6 6 6 5 5 5 5 4 5 5 5 5 5 5 5 6 5 5 4 4 6 6 6 6 6 6 6 4 5 5 5
2 1 2 3 4 6 5 6 3 2 3 4 5 6 7 7 7 7 6 6 6 5 5 4 4 5 4 5 5 4 5 5 6 6 6 6 6 5 6 6 6 7 6 6 6 5 5 6 5
1 2 2 3 4 5 6 4 1 3 3 4 6 7 7 8 8 7 6 6 5 5 4 3 3 4 4 4 4 5 5 5 6 5 6 6 6 6 7 7 7 7 7 6 6 6 6 6 6
3 3 3 3 4 4 6 5 2 2 4 5 7 7 8 8 8 7 7 6 5 5 4 3 3 4 4 4 4 5 5 5 5 5 5 6 6 7 7 7 7 6 6 7 7 7 7 7 7
Wind_Direction
332 322 287 238 216 219 227 222 224 203 200 223 238 239 234 236 288 42 39 52 68 145 154 152 137 129 123 117 113 112 116 121 123 126 127 125 123 121 121 119 115 115 115 112 109 107 105 104 103
328 310 234 219 231 224 219 223 218 227 201 176 198 217 207 184 31 28 19 7 103 147 151 153 125 129 123 119 114 114 117 121 125 123 125 125 123 122 121 119 116 113 110 110 109 107 107 105 104
316 307 230 204 226 234 220 211 226 230 190 198 185 216 252 49 45 16 359 324 135 140 140 128 122 125 126 120 114 116 116 120 125 124 122 123 124 123 122 118 115 113 111 109 109 110 110 108 107
268 194 205 223 221 229 241 217 236 207 188 207 207 165 128 56 14 1 8 121 121 130 131 120 110 124 126 122 117 116 118 118 126 130 128 124 125 126 123 118 114 114 113 113 112 112 113 112 109
257 218 206 221 229 225 232 261 263 235 203 197 217 206 140 79 24 28 67 113 112 117 126 130 97 107 121 128 126 123 118 118 123 134 133 129 126 124 124 120 116 117 117 119 118 116 114 113 112
187 213 222 226 225 223 226 238 241 246 232 210 227 223 144 71 26 26 58 107 106 106 117 126 104 88 91 113 129 128 121 120 119 132 137 131 128 124 122 122 120 121 120 121 122 120 115 114 113
222 216 234 236 230 229 228 231 237 247 238 227 245 225 159 48 8 11 73 104 101 99 95 111 129 124 96 81 106 124 121 119 115 118 134 127 124 126 122 123 124 124 122 122 123 120 115 112 112
302 219 225 228 232 233 223 230 250 256 255 264 235 230 213 343 343 22 80 92 89 91 94 96 106 124 133 127 77 84 106 106 105 102 116 119 122 123 123 127 122 121 121 122 123 120 115 110 111
253 226 230 227 233 228 224 233 282 282 248 238 243 267 322 57 134 86 66 52 54 65 82 93 98 101 122 140 107 94 105 112 118 114 112 140 149 146 144 127 119 119 119 123 124 121 117 113 111
238 228 236 252 260 245 249 265 276 251 252 245 247 303 25 132 147 133 105 49 33 27 26 76 124 128 122 128 142 158 160 164 166 161 155 166 159 148 141 117 113 117 116 119 120 122 127 136 130
194 237 237 251 280 276 261 264 255 242 251 254 266 275 170 172 170 179 180 199 200 211 0 350 325 188 168 138 155 157 165 173 179 172 166 167 159 151 146 143 138 138 141 136 132 139 141 138 130
189 249 260 267 272 267 267 265 253 242 254 292 288 268 223 209 211 207 210 229 225 231 275 302 310 230 196 170 160 171 154 176 185 180 178 174 164 163 155 155 155 158 156 151 150 145 139 135 135
221 235 263 271 263 263 262 255 260 257 263 283 280 262 233 225 225 221 218 235 252 254 273 296 289 244 220 191 177 170 174 177 189 190 182 176 175 170 162 156 157 160 157 158 154 149 143 140 136
218 234 262 274 261 257 262 259 248 255 256 259 258 252 241 221 227 227 228 244 253 263 265 279 266 240 238 213 198 193 190 188 194 195 188 185 183 175 167 162 162 161 160 159 157 152 146 140 137
227 244 248 250 247 244 262 249 234 247 240 246 256 259 248 231 223 229 236 243 247 256 260 266 257 248 235 230 207 201 203 211 205 202 196 189 188 179 172 167 164 163 160 156 153 151 148 142 142
218 233 239 228 237 238 247 253 235 235 228 242 252 258 258 240 235 240 246 255 256 261 255 256 259 255 248 244 225 201 205 219 219 216 205 199 189 184 176 171 167 164 161 158 158 158 154 149 145
210 246 253 252 223 246 240 257 250 245 234 243 251 257 260 250 247 255 260 263 262 257 258 255 255 250 249 244 231 208 204 216 221 210 202 206 195 187 181 175 169 168 164 163 166 164 160 153 146
252 257 255 261 259 259 254 259 264 254 241 245 249 253 254 251 258 283 290 284 274 266 267 260 259 253 242 228 225 210 197 214 219 212 203 199 196 187 179 181 177 174 169 168 171 167 160 153 145
262 258 265 268 278 268 260 267 273 267 242 241 243 248 256 259 273 297 293 296 302 295 285 268 260 253 239 227 226 222 210 212 222 214 212 202 196 186 179 177 179 182 179 176 174 169 159 154 152
254 258 268 275 272 272 275 275 270 251 234 234 236 240 261 266 281 297 307 310 301 288 280 272 263 249 236 234 233 225 230 215 219 221 215 206 198 185 180 176 177 181 180 179 177 172 167 163 174
252 252 268 282 291 254 274 264 228 219 216 228 238 244 255 254 265 281 291 291 290 286 278 269 259 253 241 237 226 219 214 201 205 216 210 202 202 193 185 185 182 183 185 183 184 181 181 176 180
263 257 268 273 273 266 273 275 232 210 223 231 238 243 249 258 268 276 283 284 281 278 275 267 259 254 244 228 220 216 215 210 216 212 211 206 202 195 186 185 187 186 188 189 189 188 187 182 180
274 298 266 256 252 262 235 251 250 216 231 244 259 268 264 261 269 276 279 282 277 274 272 265 256 251 246 234 226 221 222 220 216 202 205 200 201 200 193 186 187 189 191 190 194 191 191 192 189
287 261 233 222 230 244 229 239 257 219 242 267 281 287 285 288 283 278 282 288 282 275 269 266 258 250 243 235 230 227 224 219 217 214 205 199 201 204 200 194 191 189 189 192 197 198 197 199 197
318 273 263 237 224 239 190 236 251 245 245 260 273 294 303 295 294 291 294 289 286 275 266 260 255 248 241 235 232 233 231 225 221 222 210 204 204 210 205 201 197 193 192 192 198 199 200 201 198
292 273 269 279 273 281 229 242 250 294 280 281 278 287 304 305 305 302 298 294 288 275 259 251 248 247 241 237 238 237 234 231 230 230 221 211 212 214 211 207 201 197 194 191 195 198 200 202 201
243 226 316 277 277 271 251 261 276 245 282 296 306 311 312 313 308 304 307 304 295 285 270 249 243 245 241 240 240 239 235 237 238 235 226 215 217 216 211 208 202 197 197 195 194 198 199 199 202
327 192 208 227 261 267 265 251 259 289 319 339 332 324 320 318 314 312 310 309 306 295 281 261 246 243 247 243 242 243 238 239 243 231 224 217 216 217 212 209 203 197 196 194 195 198 202 203 203
177 181 237 247 273 269 271 262 48 292 317 315 320 323 320 320 320 316 311 309 309 309 297 262 253 254 252 250 248 247 242 243 245 236 229 220 213 213 209 205 202 199 196 196 197 199 198 201 204
232 223 211 244 243 254 274 274 60 313 318 313 315 319 319 318 319 318 317 315 319 321 316 293 265 257 256 257 254 249 246 245 241 240 237 223 215 213 209 204 201 203 203 201 201 201 203 204 205